TimePST,TemperatureF,Dew PointF,Humidity,Sea Level PressureIn,VisibilityMPH,Wind Direction,Wind SpeedMPH,Gust SpeedMPH,PrecipitationIn,Events,Conditions,WindDirDegrees,DateUTC
12:43 AM,35.6,32.0,87,29.69,10.0,East,3.5,-,N/A,,Partly Cloudy,80,2012-11-18 08:43:00
12:55 AM,37.0,35.1,93,29.72,10.0,East,4.6,-,N/A,,Partly Cloudy,80,2012-11-18 08:55:00
1:55 AM,36.0,33.1,89,29.73,10.0,NE,3.5,-,N/A,,Partly Cloudy,40,2012-11-18 09:55:00
2:55 AM,35.1,32.0,89,29.76,10.0,Calm,Calm,-,N/A,,Clear,0,2012-11-18 10:55:00
3:55 AM,35.1,32.0,89,29.78,10.0,Calm,Calm,-,N/A,,Clear,0,2012-11-18 11:55:00
4:55 AM,34.0,30.9,89,29.80,7.0,East,3.5,-,N/A,,Clear,90,2012-11-18 12:55:00
5:30 AM,33.8,30.2,87,29.78,2.0,Calm,Calm,-,N/A,,Scattered Clouds,0,2012-11-18 13:30:00
5:32 AM,33.8,30.2,87,29.78,0.8,Calm,Calm,-,N/A,,Mist,0,2012-11-18 13:32:00
5:41 AM,33.8,30.2,87,29.78,0.2,East,4.6,-,N/A,Fog,Fog,80,2012-11-18 13:41:00
5:51 AM,33.8,30.2,87,29.78,1.5,East,4.6,-,N/A,,Scattered Clouds,80,2012-11-18 13:51:00
5:53 AM,33.8,30.2,87,29.78,3.0,ENE,8.1,-,N/A,,Scattered Clouds,70,2012-11-18 13:53:00
5:55 AM,33.1,30.0,89,29.81,5.0,East,9.2,-,N/A,,Scattered Clouds,80,2012-11-18 13:55:00
6:55 AM,37.0,30.9,79,29.82,10.0,East,9.2,-,N/A,,Scattered Clouds,90,2012-11-18 14:55:00
7:55 AM,36.0,32.0,86,29.84,10.0,ENE,8.1,-,N/A,,Partly Cloudy,70,2012-11-18 15:55:00
8:55 AM,37.0,32.0,82,29.84,10.0,East,8.1,-,N/A,,Clear,80,2012-11-18 16:55:00
9:55 AM,39.0,33.1,79,29.85,10.0,East,4.6,-,N/A,,Mostly Cloudy,100,2012-11-18 17:55:00
10:55 AM,39.0,34.0,82,29.85,10.0,Calm,Calm,-,N/A,,Scattered Clouds,0,2012-11-18 18:55:00
12:55 PM,44.1,36.0,73,29.81,10.0,East,5.8,-,N/A,,Mostly Cloudy,100,2012-11-18 20:55:00
1:55 PM,46.0,34.0,63,29.80,10.0,SE,6.9,19.6,N/A,,Partly Cloudy,140,2012-11-18 21:55:00
2:55 PM,45.0,35.1,68,29.79,10.0,Variable,4.6,-,N/A,,Mostly Cloudy,0,2012-11-18 22:55:00
3:55 PM,48.0,33.1,56,29.78,10.0,ESE,10.4,-,N/A,,Mostly Cloudy,110,2012-11-18 23:55:00
4:55 PM,46.9,34.0,61,29.78,10.0,East,10.4,-,N/A,,Overcast,100,2012-11-19 00:55:00
5:55 PM,45.0,37.0,74,29.77,10.0,ENE,12.7,20.7,0.00,Rain,Light Rain,70,2012-11-19 01:55:00
6:55 PM,44.1,37.9,79,29.74,9.0,East,9.2,-,0.01,Rain,Light Rain,90,2012-11-19 02:55:00
7:55 PM,45.0,37.9,76,29.74,5.0,ESE,12.7,23.0,0.06,Rain,Rain,120,2012-11-19 03:55:00
9:55 PM,45.0,37.9,76,29.71,10.0,East,18.4,26.5,0.00,,Overcast,90,2012-11-19 05:55:00
10:55 PM,46.0,37.9,73,29.70,10.0,East,16.1,25.3,N/A,,Overcast,100,2012-11-19 06:55:00
11:55 PM,45.0,39.0,80,29.71,10.0,East,13.8,-,0.00,Rain,Light Rain,90,2012-11-19 07:55:00